Terminal Aerodrome Forecast
Issued by NWS Grand Rapids, MI

Home | Current Version | Previous Version | Text Only | Print | Product List | Glossary On
Versions: 1 2 3 4 5 6 7 8 9 10 11 12 13 14 15 16 17 18 19
795
FTUS43 KGRR 281140
TAFGRR
TAF
KGRR 281140Z 2812/2912 17007KT P6SM SCT100
     FM281400 19012G18KT P6SM VCSH BKN060
     FM281800 20012G20KT P6SM VCTS BKN050CB
     FM290000 18012KT P6SM VCSH BKN050=

USA.gov is the U.S. government's official web portal to all federal, state and local government web resources and services.